Time,TemperatureF,DewpointF,PressureIn,WindDirection,WindDirectionDegrees,WindSpeedMPH,WindSpeedGustMPH,Humidity,HourlyPrecipIn,Conditions,Clouds,dailyrainin,SoftwareType,DateUTC
2013-09-03 00:06:00,79.5,72.5,29.94,West,270,0.0,-999.0,79,0.00,,,0.00,open2300 v1.10,2013-09-03 05:06:00,
2013-09-03 00:12:00,79.5,72.5,29.94,West,270,0.0,-999.0,79,0.00,,,0.00,open2300 v1.10,2013-09-03 05:12:00,
2013-09-03 00:17:00,79.3,72.3,29.93,West,270,0.0,-999.0,79,0.00,,,0.00,open2300 v1.10,2013-09-03 05:17:00,
2013-09-03 00:22:00,79.3,72.7,29.93,WSW,247,0.0,-999.0,80,0.00,,,0.00,open2300 v1.10,2013-09-03 05:22:00,
2013-09-03 00:27:00,79.3,72.3,29.94,SW,225,0.0,-999.0,79,0.00,,,0.00,open2300 v1.10,2013-09-03 05:27:00,
2013-09-03 00:32:00,79.3,72.3,29.93,SSW,202,0.0,-999.0,79,0.00,,,0.00,open2300 v1.10,2013-09-03 05:32:00,
2013-09-03 00:37:00,79.3,72.3,29.93,SSW,202,0.0,-999.0,79,0.00,,,0.00,open2300 v1.10,2013-09-03 05:37:00,
2013-09-03 00:42:00,79.3,72.7,29.93,SSW,202,0.0,-999.0,80,0.00,,,0.00,open2300 v1.10,2013-09-03 05:42:00,
2013-09-03 00:47:00,79.3,72.7,29.93,SSW,202,0.0,-999.0,80,0.00,,,0.00,open2300 v1.10,2013-09-03 05:47:00,
2013-09-03 00:52:00,79.2,72.5,29.93,SSW,202,0.0,-999.0,80,0.00,,,0.00,open2300 v1.10,2013-09-03 05:52:00,
2013-09-03 00:57:00,79.2,72.5,29.93,SSW,202,0.0,-999.0,80,0.00,,,0.00,open2300 v1.10,2013-09-03 05:57:00,
2013-09-03 01:06:00,79.2,72.5,29.94,SSW,202,0.0,-999.0,80,0.00,,,0.00,open2300 v1.10,2013-09-03 06:06:00,
2013-09-03 01:12:00,79.0,72.3,29.93,SSW,202,0.0,-999.0,80,0.00,,,0.00,open2300 v1.10,2013-09-03 06:12:00,
2013-09-03 01:17:00,78.8,72.5,29.93,SSW,202,0.0,-999.0,81,0.00,,,0.00,open2300 v1.10,2013-09-03 06:17:00,
2013-09-03 01:22:00,78.6,72.3,29.93,SSW,202,0.0,-999.0,81,0.00,,,0.00,open2300 v1.10,2013-09-03 06:22:00,
2013-09-03 01:27:00,78.6,72.3,29.93,SSW,202,0.0,-999.0,81,0.00,,,0.00,open2300 v1.10,2013-09-03 06:27:00,
2013-09-03 01:32:00,78.6,72.3,29.93,WNW,292,0.0,-999.0,81,0.00,,,0.00,open2300 v1.10,2013-09-03 06:32:00,
2013-09-03 01:37:00,78.6,71.6,29.94,NW,315,0.0,-999.0,79,0.00,,,0.00,open2300 v1.10,2013-09-03 06:37:00,
2013-09-03 01:42:00,79.3,72.3,29.93,WNW,292,0.0,-999.0,79,0.00,,,0.00,open2300 v1.10,2013-09-03 06:42:00,
2013-09-03 01:52:00,80.8,72.9,29.93,WNW,292,0.0,-999.0,77,0.00,,,0.00,open2300 v1.10,2013-09-03 06:52:00,
2013-09-03 01:57:00,81.0,72.7,29.93,NW,315,0.0,-999.0,76,0.00,,,0.00,open2300 v1.10,2013-09-03 06:57:00,
2013-09-03 02:06:00,81.7,72.6,29.93,NW,315,0.0,-999.0,74,0.00,,,0.00,open2300 v1.10,2013-09-03 07:06:00,
2013-09-03 02:11:00,82.0,72.9,29.93,NW,315,0.0,-999.0,74,0.00,,,0.00,open2300 v1.10,2013-09-03 07:11:00,
2013-09-03 02:17:00,82.2,72.7,29.93,NNW,337,0.7,-999.0,73,0.00,,,0.00,open2300 v1.10,2013-09-03 07:17:00,
2013-09-03 02:22:00,82.4,72.8,29.93,NNW,337,0.0,-999.0,73,0.00,,,0.00,open2300 v1.10,2013-09-03 07:22:00,
2013-09-03 02:27:00,82.6,72.6,29.93,NW,315,1.3,-999.0,72,0.00,,,0.00,open2300 v1.10,2013-09-03 07:27:00,
2013-09-03 02:32:00,82.4,72.4,29.93,NW,315,0.0,-999.0,72,0.00,,,0.00,open2300 v1.10,2013-09-03 07:32:00,
2013-09-03 02:37:00,82.6,72.6,29.93,NNW,337,0.0,-999.0,72,0.00,,,0.00,open2300 v1.10,2013-09-03 07:37:00,
2013-09-03 02:47:00,82.6,72.2,29.93,NW,315,0.0,-999.0,71,0.00,,,0.00,open2300 v1.10,2013-09-03 07:47:00,
2013-09-03 02:52:00,82.6,72.2,29.93,NW,315,6.7,-999.0,71,0.00,,,0.00,open2300 v1.10,2013-09-03 07:52:00,
2013-09-03 02:57:00,82.6,72.2,29.93,NW,315,5.4,-999.0,71,0.00,,,0.00,open2300 v1.10,2013-09-03 07:57:00,
2013-09-03 03:06:00,82.4,72.0,29.93,NNW,337,0.4,-999.0,71,0.00,,,0.00,open2300 v1.10,2013-09-03 08:06:00,
2013-09-03 03:11:00,82.2,71.8,29.93,NNW,337,6.7,-999.0,71,0.00,,,0.00,open2300 v1.10,2013-09-03 08:11:00,
2013-09-03 03:17:00,82.2,71.8,29.93,NW,315,1.6,-999.0,71,0.00,,,0.00,open2300 v1.10,2013-09-03 08:17:00,
2013-09-03 03:22:00,82.2,71.8,29.93,NNW,337,2.0,-999.0,71,0.00,,,0.00,open2300 v1.10,2013-09-03 08:22:00,
2013-09-03 03:27:00,82.2,72.2,29.93,NNW,337,0.0,-999.0,72,0.00,,,0.00,open2300 v1.10,2013-09-03 08:27:00,
2013-09-03 03:32:00,82.2,72.2,29.93,NNW,337,0.0,-999.0,72,0.00,,,0.00,open2300 v1.10,2013-09-03 08:32:00,
2013-09-03 03:37:00,82.2,72.2,29.94,NW,315,0.0,-999.0,72,0.00,,,0.00,open2300 v1.10,2013-09-03 08:37:00,
2013-09-03 03:42:00,82.2,72.2,29.93,WNW,292,4.9,-999.0,72,0.00,,,0.00,open2300 v1.10,2013-09-03 08:42:00,
2013-09-03 03:47:00,82.2,72.2,29.94,NW,315,7.4,-999.0,72,0.00,,,0.00,open2300 v1.10,2013-09-03 08:47:00,
2013-09-03 03:52:00,82.0,72.1,29.94,North,0,6.9,-999.0,72,0.00,,,0.00,open2300 v1.10,2013-09-03 08:52:00,
2013-09-03 03:57:00,82.0,72.1,29.94,NNW,337,4.0,-999.0,72,0.00,,,0.00,open2300 v1.10,2013-09-03 08:57:00,
2013-09-03 04:06:00,81.5,72.0,29.94,NW,315,0.0,-999.0,73,0.00,,,0.00,open2300 v1.10,2013-09-03 09:06:00,
2013-09-03 04:11:00,81.3,71.8,29.94,NNW,337,0.7,-999.0,73,0.00,,,0.00,open2300 v1.10,2013-09-03 09:11:00,
2013-09-03 04:17:00,81.3,71.8,29.94,North,0,1.1,-999.0,73,0.00,,,0.00,open2300 v1.10,2013-09-03 09:17:00,
2013-09-03 04:22:00,81.3,72.2,29.94,NNW,337,0.0,-999.0,74,0.00,,,0.00,open2300 v1.10,2013-09-03 09:22:00,
2013-09-03 04:27:00,81.3,72.2,29.94,NNW,337,0.0,-999.0,74,0.00,,,0.00,open2300 v1.10,2013-09-03 09:27:00,
2013-09-03 04:37:00,81.3,72.2,29.94,NW,315,0.0,-999.0,74,0.00,,,0.00,open2300 v1.10,2013-09-03 09:37:00,
2013-09-03 04:42:00,81.3,72.2,29.94,NW,315,0.0,-999.0,74,0.00,,,0.00,open2300 v1.10,2013-09-03 09:42:00,
2013-09-03 04:47:00,81.3,72.2,29.95,NNW,337,0.4,-999.0,74,0.00,,,0.00,open2300 v1.10,2013-09-03 09:47:00,
2013-09-03 04:52:00,81.3,72.2,29.95,NNW,337,1.8,-999.0,74,0.00,,,0.00,open2300 v1.10,2013-09-03 09:52:00,
2013-09-03 04:57:00,81.3,72.2,29.94,NNW,337,5.8,-999.0,74,0.00,,,0.00,open2300 v1.10,2013-09-03 09:57:00,
2013-09-03 05:06:00,81.3,72.2,29.94,North,0,3.4,-999.0,74,0.00,,,0.00,open2300 v1.10,2013-09-03 10:06:00,
2013-09-03 05:11:00,81.3,72.2,29.95,NNW,337,6.7,-999.0,74,0.00,,,0.00,open2300 v1.10,2013-09-03 10:11:00,
2013-09-03 05:17:00,81.1,72.1,29.95,NW,315,5.4,-999.0,74,0.00,,,0.00,open2300 v1.10,2013-09-03 10:17:00,
2013-09-03 05:27:00,81.3,72.2,29.95,NW,315,2.9,-999.0,74,0.00,,,0.00,open2300 v1.10,2013-09-03 10:27:00,
2013-09-03 05:32:00,81.1,72.1,29.95,NW,315,0.0,-999.0,74,0.00,,,0.00,open2300 v1.10,2013-09-03 10:32:00,
2013-09-03 05:37:00,81.1,72.1,29.95,NNW,337,0.0,-999.0,74,0.00,,,0.00,open2300 v1.10,2013-09-03 10:37:00,
2013-09-03 05:47:00,81.1,72.1,29.95,NNW,337,0.0,-999.0,74,0.00,,,0.00,open2300 v1.10,2013-09-03 10:47:00,
2013-09-03 05:57:00,81.1,72.1,29.95,NNW,337,0.0,-999.0,74,0.00,,,0.00,open2300 v1.10,2013-09-03 10:57:00,
2013-09-03 06:06:00,81.1,72.1,29.95,NW,315,0.0,-999.0,74,0.00,,,0.00,open2300 v1.10,2013-09-03 11:06:00,
2013-09-03 06:12:00,81.1,72.1,29.96,NW,315,0.0,-999.0,74,0.00,,,0.00,open2300 v1.10,2013-09-03 11:12:00,
2013-09-03 06:17:00,81.1,72.1,29.95,NW,315,0.0,-999.0,74,0.00,,,0.00,open2300 v1.10,2013-09-03 11:17:00,
2013-09-03 06:22:00,81.0,71.9,29.96,NNW,337,0.0,-999.0,74,0.00,,,0.00,open2300 v1.10,2013-09-03 11:22:00,
2013-09-03 06:27:00,81.0,71.9,29.96,NNW,337,0.0,-999.0,74,0.00,,,0.00,open2300 v1.10,2013-09-03 11:27:00,
2013-09-03 06:32:00,81.1,72.1,29.96,NW,315,3.6,-999.0,74,0.00,,,0.00,open2300 v1.10,2013-09-03 11:32:00,
2013-09-03 06:37:00,81.0,71.9,29.96,NW,315,1.6,-999.0,74,0.00,,,0.00,open2300 v1.10,2013-09-03 11:37:00,
2013-09-03 06:47:00,80.6,72.0,29.96,NNW,337,0.7,-999.0,75,0.00,,,0.00,open2300 v1.10,2013-09-03 11:47:00,
2013-09-03 06:52:00,80.8,72.1,29.96,NNW,337,0.0,-999.0,75,0.00,,,0.00,open2300 v1.10,2013-09-03 11:52:00,
2013-09-03 06:57:00,80.8,72.1,29.96,NNW,337,0.0,-999.0,75,0.00,,,0.00,open2300 v1.10,2013-09-03 11:57:00,
2013-09-03 07:06:00,80.8,72.1,29.96,NNW,337,0.0,-999.0,75,0.00,,,0.00,open2300 v1.10,2013-09-03 12:06:00,
2013-09-03 07:12:00,80.8,72.1,29.97,NNW,337,0.0,-999.0,75,0.00,,,0.00,open2300 v1.10,2013-09-03 12:12:00,
2013-09-03 07:17:00,81.0,72.7,29.97,NNW,337,0.0,-999.0,76,0.00,,,0.00,open2300 v1.10,2013-09-03 12:17:00,
2013-09-03 07:22:00,80.8,72.5,29.97,NE,45,0.0,-999.0,76,0.00,,,0.00,open2300 v1.10,2013-09-03 12:22:00,
2013-09-03 07:27:00,80.8,72.5,29.97,NE,45,0.0,-999.0,76,0.00,,,0.00,open2300 v1.10,2013-09-03 12:27:00,
2013-09-03 07:32:00,80.8,72.1,29.98,North,0,0.0,-999.0,75,0.00,,,0.00,open2300 v1.10,2013-09-03 12:32:00,
2013-09-03 07:37:00,81.0,72.3,29.97,North,0,1.6,-999.0,75,0.00,,,0.00,open2300 v1.10,2013-09-03 12:37:00,
2013-09-03 07:42:00,81.1,72.5,29.98,North,0,0.0,-999.0,75,0.00,,,0.00,open2300 v1.10,2013-09-03 12:42:00,
2013-09-03 07:47:00,81.3,72.6,29.98,NW,315,2.5,-999.0,75,0.00,,,0.00,open2300 v1.10,2013-09-03 12:47:00,
2013-09-03 07:52:00,81.7,72.6,29.97,NNW,337,0.0,-999.0,74,0.00,,,0.00,open2300 v1.10,2013-09-03 12:52:00,
2013-09-03 07:57:00,81.7,72.6,29.98,NNW,337,0.0,-999.0,74,0.00,,,0.00,open2300 v1.10,2013-09-03 12:57:00,
2013-09-03 08:06:00,82.2,72.7,29.98,NNW,337,0.0,-999.0,73,0.00,,,0.00,open2300 v1.10,2013-09-03 13:06:00,
2013-09-03 08:11:00,82.2,72.7,29.98,NNW,337,0.0,-999.0,73,0.00,,,0.00,open2300 v1.10,2013-09-03 13:11:00,
2013-09-03 08:17:00,82.4,73.3,29.98,North,0,0.0,-999.0,74,0.00,,,0.00,open2300 v1.10,2013-09-03 13:17:00,
2013-09-03 08:22:00,82.6,73.0,29.98,NNW,337,0.0,-999.0,73,0.00,,,0.00,open2300 v1.10,2013-09-03 13:22:00,
2013-09-03 08:27:00,82.6,73.4,29.99,NNE,22,0.0,-999.0,74,0.00,,,0.00,open2300 v1.10,2013-09-03 13:27:00,
2013-09-03 08:32:00,82.6,73.4,29.98,NNE,22,0.0,-999.0,74,0.00,,,0.00,open2300 v1.10,2013-09-03 13:32:00,
2013-09-03 08:37:00,82.6,73.4,29.99,NNE,22,0.0,-999.0,74,0.00,,,0.00,open2300 v1.10,2013-09-03 13:37:00,
2013-09-03 08:47:00,82.6,73.4,29.99,North,0,0.0,-999.0,74,0.00,,,0.00,open2300 v1.10,2013-09-03 13:47:00,
2013-09-03 08:52:00,82.6,73.8,29.99,NE,45,0.0,-999.0,75,0.00,,,0.00,open2300 v1.10,2013-09-03 13:52:00,
2013-09-03 08:57:00,82.8,74.0,29.99,NNW,337,0.0,-999.0,75,0.00,,,0.00,open2300 v1.10,2013-09-03 13:57:00,
2013-09-03 09:06:00,82.8,73.6,29.99,North,0,0.0,-999.0,74,0.00,,,0.00,open2300 v1.10,2013-09-03 14:06:00,
2013-09-03 09:11:00,82.8,74.0,29.99,NE,45,0.0,-999.0,75,0.00,,,0.00,open2300 v1.10,2013-09-03 14:11:00,
2013-09-03 09:17:00,82.8,73.6,29.99,NNW,337,0.0,-999.0,74,0.00,,,0.00,open2300 v1.10,2013-09-03 14:17:00,
2013-09-03 09:22:00,83.1,73.5,29.98,NNW,337,0.0,-999.0,73,0.00,,,0.00,open2300 v1.10,2013-09-03 14:22:00,
2013-09-03 09:27:00,83.3,73.7,29.99,NNW,337,0.0,-999.0,73,0.00,,,0.00,open2300 v1.10,2013-09-03 14:27:00,
2013-09-03 09:32:00,83.8,74.2,29.99,NNW,337,0.0,-999.0,73,0.00,,,0.00,open2300 v1.10,2013-09-03 14:32:00,
2013-09-03 09:37:00,84.0,74.4,29.99,NE,45,0.0,-999.0,73,0.00,,,0.00,open2300 v1.10,2013-09-03 14:37:00,
2013-09-03 09:47:00,84.6,74.9,29.99,South,180,0.0,-999.0,73,0.00,,,0.00,open2300 v1.10,2013-09-03 14:47:00,
2013-09-03 09:52:00,84.7,75.1,29.99,SSE,157,0.0,-999.0,73,0.00,,,0.00,open2300 v1.10,2013-09-03 14:52:00,
2013-09-03 09:57:00,84.9,74.9,29.99,ENE,67,0.0,-999.0,72,0.00,,,0.00,open2300 v1.10,2013-09-03 14:57:00,
2013-09-03 10:07:00,85.3,75.3,29.99,East,90,0.0,-999.0,72,0.00,,,0.00,open2300 v1.10,2013-09-03 15:07:00,
2013-09-03 10:12:00,85.5,75.1,30.00,SE,135,0.0,-999.0,71,0.00,,,0.00,open2300 v1.10,2013-09-03 15:12:00,
2013-09-03 10:17:00,85.8,75.4,29.99,SE,135,0.0,-999.0,71,0.00,,,0.00,open2300 v1.10,2013-09-03 15:17:00,
2013-09-03 10:27:00,86.2,74.9,30.00,NE,45,0.0,-999.0,69,0.00,,,0.00,open2300 v1.10,2013-09-03 15:27:00,
2013-09-03 10:32:00,86.2,74.9,30.00,ENE,67,0.0,-999.0,69,0.00,,,0.00,open2300 v1.10,2013-09-03 15:32:00,
2013-09-03 10:37:00,86.2,74.4,30.00,SE,135,0.7,-999.0,68,0.00,,,0.00,open2300 v1.10,2013-09-03 15:37:00,
2013-09-03 10:42:00,86.4,74.6,29.99,SSE,157,0.0,-999.0,68,0.00,,,0.00,open2300 v1.10,2013-09-03 15:42:00,
2013-09-03 10:47:00,86.7,74.5,29.99,SE,135,0.0,-999.0,67,0.00,,,0.00,open2300 v1.10,2013-09-03 15:47:00,
2013-09-03 10:52:00,86.9,74.2,29.99,South,180,3.1,-999.0,66,0.00,,,0.00,open2300 v1.10,2013-09-03 15:52:00,
2013-09-03 10:57:00,87.3,74.5,29.99,NNE,22,2.2,-999.0,66,0.00,,,0.00,open2300 v1.10,2013-09-03 15:57:00,
2013-09-03 11:06:00,87.6,73.9,29.99,SSE,157,0.0,-999.0,64,0.00,,,0.00,open2300 v1.10,2013-09-03 16:06:00,
2013-09-03 11:11:00,88.0,74.3,29.99,SE,135,0.0,-999.0,64,0.00,,,0.00,open2300 v1.10,2013-09-03 16:11:00,
2013-09-03 11:17:00,88.3,74.6,29.99,WNW,292,0.0,-999.0,64,0.00,,,0.00,open2300 v1.10,2013-09-03 16:17:00,
2013-09-03 11:22:00,88.5,73.9,29.99,NE,45,0.0,-999.0,62,0.00,,,0.00,open2300 v1.10,2013-09-03 16:22:00,
2013-09-03 11:27:00,88.5,74.3,29.99,NNE,22,0.0,-999.0,63,0.00,,,0.00,open2300 v1.10,2013-09-03 16:27:00,
2013-09-03 11:32:00,88.9,74.2,29.99,SSE,157,3.8,-999.0,62,0.00,,,0.00,open2300 v1.10,2013-09-03 16:32:00,
2013-09-03 11:37:00,88.9,74.7,29.98,North,0,0.0,-999.0,63,0.00,,,0.00,open2300 v1.10,2013-09-03 16:37:00,
2013-09-03 11:47:00,89.4,74.2,29.98,NW,315,0.0,-999.0,61,0.00,,,0.00,open2300 v1.10,2013-09-03 16:47:00,
2013-09-03 11:52:00,90.0,74.7,29.98,NE,45,0.0,-999.0,61,0.00,,,0.00,open2300 v1.10,2013-09-03 16:52:00,
2013-09-03 11:57:00,90.3,74.6,29.98,ENE,67,0.0,-999.0,60,0.00,,,0.00,open2300 v1.10,2013-09-03 16:57:00,
2013-09-03 12:06:00,90.7,74.4,29.98,SE,135,3.6,-999.0,59,0.00,,,0.00,open2300 v1.10,2013-09-03 17:06:00,
2013-09-03 12:11:00,90.7,73.8,29.98,ESE,112,0.0,-999.0,58,0.00,,,0.00,open2300 v1.10,2013-09-03 17:11:00,
2013-09-03 12:17:00,90.3,74.6,29.98,NE,45,0.0,-999.0,60,0.00,,,0.00,open2300 v1.10,2013-09-03 17:17:00,
2013-09-03 12:22:00,89.8,76.4,29.98,North,0,7.2,-999.0,65,0.00,,,0.00,open2300 v1.10,2013-09-03 17:22:00,
2013-09-03 12:27:00,87.6,74.4,29.98,NW,315,6.3,-999.0,65,0.00,,,0.00,open2300 v1.10,2013-09-03 17:27:00,
2013-09-03 12:32:00,85.3,74.0,29.98,NW,315,0.0,-999.0,69,0.00,,,0.00,open2300 v1.10,2013-09-03 17:32:00,
2013-09-03 12:37:00,84.4,74.0,29.98,NW,315,0.0,-999.0,71,0.00,,,0.00,open2300 v1.10,2013-09-03 17:37:00,
2013-09-03 12:42:00,84.0,74.0,29.97,NW,315,0.0,-999.0,72,0.00,,,0.00,open2300 v1.10,2013-09-03 17:42:00,
2013-09-03 12:47:00,83.5,75.1,29.97,NW,315,0.0,-999.0,76,0.00,,,0.00,open2300 v1.10,2013-09-03 17:47:00,
2013-09-03 12:52:00,83.5,75.1,29.97,NW,315,0.0,-999.0,76,0.00,,,0.00,open2300 v1.10,2013-09-03 17:52:00,
2013-09-03 12:57:00,83.5,73.9,29.97,NW,315,0.0,-999.0,73,0.00,,,0.00,open2300 v1.10,2013-09-03 17:57:00,
2013-09-03 13:06:00,84.0,73.6,29.96,West,270,0.0,-999.0,71,0.00,,,0.00,open2300 v1.10,2013-09-03 18:06:00,
2013-09-03 13:12:00,84.4,73.6,29.96,WNW,292,0.0,-999.0,70,0.00,,,0.00,open2300 v1.10,2013-09-03 18:12:00,
2013-09-03 13:17:00,84.9,73.2,29.96,NNW,337,0.0,-999.0,68,0.00,,,0.00,open2300 v1.10,2013-09-03 18:17:00,
2013-09-03 13:27:00,85.6,72.5,29.96,NW,315,0.0,-999.0,65,0.00,,,0.00,open2300 v1.10,2013-09-03 18:27:00,
2013-09-03 13:32:00,86.4,72.7,29.96,North,0,0.0,-999.0,64,0.00,,,0.00,open2300 v1.10,2013-09-03 18:32:00,
2013-09-03 13:37:00,86.7,73.1,29.96,NW,315,0.0,-999.0,64,0.00,,,0.00,open2300 v1.10,2013-09-03 18:37:00,
2013-09-03 13:42:00,86.9,72.8,29.96,NW,315,0.0,-999.0,63,0.00,,,0.00,open2300 v1.10,2013-09-03 18:42:00,
2013-09-03 13:47:00,87.1,73.0,29.95,NW,315,0.0,-999.0,63,0.00,,,0.00,open2300 v1.10,2013-09-03 18:47:00,
2013-09-03 13:52:00,87.1,72.5,29.95,NW,315,0.0,-999.0,62,0.00,,,0.00,open2300 v1.10,2013-09-03 18:52:00,
2013-09-03 13:57:00,87.6,73.0,29.94,SE,135,11.9,-999.0,62,0.00,,,0.00,open2300 v1.10,2013-09-03 18:57:00,
2013-09-03 14:06:00,86.2,73.0,29.96,SE,135,0.0,-999.0,65,0.00,,,0.00,open2300 v1.10,2013-09-03 19:06:00,
2013-09-03 14:11:00,86.2,73.0,29.96,NW,315,5.6,-999.0,65,0.00,,,0.00,open2300 v1.10,2013-09-03 19:11:00,
2013-09-03 14:17:00,86.2,72.6,29.96,NNW,337,2.2,-999.0,64,0.00,,,0.00,open2300 v1.10,2013-09-03 19:17:00,
2013-09-03 14:22:00,86.2,72.6,29.96,NNW,337,4.0,-999.0,64,0.00,,,0.00,open2300 v1.10,2013-09-03 19:22:00,
2013-09-03 14:27:00,86.2,72.6,29.95,North,0,1.1,-999.0,64,0.00,,,0.00,open2300 v1.10,2013-09-03 19:27:00,
2013-09-03 14:32:00,85.6,72.5,29.94,NW,315,17.7,-999.0,65,0.00,,,0.00,open2300 v1.10,2013-09-03 19:32:00,
2013-09-03 14:37:00,84.9,72.7,29.94,WNW,292,15.0,-999.0,67,0.00,,,0.00,open2300 v1.10,2013-09-03 19:37:00,
2013-09-03 14:42:00,84.2,72.5,29.94,NW,315,9.6,-999.0,68,0.00,,,0.00,open2300 v1.10,2013-09-03 19:42:00,
2013-09-03 14:52:00,83.7,72.4,29.94,North,0,0.0,-999.0,69,0.00,,,0.00,open2300 v1.10,2013-09-03 19:52:00,
2013-09-03 14:57:00,83.5,72.2,29.93,North,0,1.8,-999.0,69,0.00,,,0.00,open2300 v1.10,2013-09-03 19:57:00,
2013-09-03 15:06:00,82.9,72.5,29.92,SSE,157,4.7,-999.0,71,0.00,,,0.00,open2300 v1.10,2013-09-03 20:06:00,
2013-09-03 15:12:00,82.0,72.1,29.92,NNW,337,4.2,-999.0,72,0.00,,,0.00,open2300 v1.10,2013-09-03 20:12:00,
2013-09-03 15:17:00,81.5,72.4,29.92,North,0,0.0,-999.0,74,0.00,,,0.00,open2300 v1.10,2013-09-03 20:17:00,
2013-09-03 15:22:00,81.3,72.2,29.93,North,0,0.0,-999.0,74,0.00,,,0.00,open2300 v1.10,2013-09-03 20:22:00,
2013-09-03 15:27:00,81.0,71.5,29.93,North,0,0.0,-999.0,73,0.00,,,0.00,open2300 v1.10,2013-09-03 20:27:00,
2013-09-03 15:32:00,81.1,72.5,29.93,WSW,247,0.0,-999.0,75,0.00,,,0.00,open2300 v1.10,2013-09-03 20:32:00,
2013-09-03 15:37:00,81.5,73.2,29.92,WSW,247,0.0,-999.0,76,0.00,,,0.00,open2300 v1.10,2013-09-03 20:37:00,
2013-09-03 15:42:00,81.9,73.2,29.92,SW,225,0.0,-999.0,75,0.00,,,0.00,open2300 v1.10,2013-09-03 20:42:00,
2013-09-03 15:47:00,82.2,73.1,29.92,SW,225,0.0,-999.0,74,0.00,,,0.00,open2300 v1.10,2013-09-03 20:47:00,
2013-09-03 15:52:00,82.8,74.0,29.92,SW,225,0.0,-999.0,75,0.00,,,0.00,open2300 v1.10,2013-09-03 20:52:00,
2013-09-03 15:57:00,83.1,73.9,29.92,WSW,247,0.0,-999.0,74,0.00,,,0.00,open2300 v1.10,2013-09-03 20:57:00,
2013-09-03 16:07:00,84.9,75.3,29.92,NNE,22,0.0,-999.0,73,0.00,,,0.00,open2300 v1.10,2013-09-03 21:07:00,
2013-09-03 16:12:00,85.3,75.3,29.93,North,0,0.0,-999.0,72,0.00,,,0.00,open2300 v1.10,2013-09-03 21:12:00,
2013-09-03 16:17:00,85.5,75.1,29.92,SE,135,0.0,-999.0,71,0.00,,,0.00,open2300 v1.10,2013-09-03 21:17:00,
2013-09-03 16:22:00,85.6,75.2,29.92,ESE,112,0.0,-999.0,71,0.00,,,0.00,open2300 v1.10,2013-09-03 21:22:00,
2013-09-03 16:27:00,85.5,74.7,29.91,East,90,0.0,-999.0,70,0.00,,,0.00,open2300 v1.10,2013-09-03 21:27:00,
2013-09-03 16:32:00,85.5,74.7,29.91,East,90,0.0,-999.0,70,0.00,,,0.00,open2300 v1.10,2013-09-03 21:32:00,
2013-09-03 16:37:00,85.5,74.7,29.92,SE,135,3.8,-999.0,70,0.00,,,0.00,open2300 v1.10,2013-09-03 21:37:00,
2013-09-03 16:47:00,85.5,74.2,29.92,ENE,67,0.0,-999.0,69,0.00,,,0.00,open2300 v1.10,2013-09-03 21:47:00,
2013-09-03 16:52:00,85.8,74.6,29.91,ESE,112,1.6,-999.0,69,0.00,,,0.00,open2300 v1.10,2013-09-03 21:52:00,
2013-09-03 16:57:00,86.2,74.4,29.92,South,180,0.0,-999.0,68,0.00,,,0.00,open2300 v1.10,2013-09-03 21:57:00,
2013-09-03 17:06:00,86.5,74.3,29.91,SSE,157,0.0,-999.0,67,0.00,,,0.00,open2300 v1.10,2013-09-03 22:06:00,
2013-09-03 17:11:00,86.9,74.2,29.90,ENE,67,0.0,-999.0,66,0.00,,,0.00,open2300 v1.10,2013-09-03 22:11:00,
2013-09-03 17:17:00,87.1,74.3,29.89,East,90,0.0,-999.0,66,0.00,,,0.00,open2300 v1.10,2013-09-03 22:17:00,
2013-09-03 17:22:00,87.4,74.7,29.89,ESE,112,0.0,-999.0,66,0.00,,,0.00,open2300 v1.10,2013-09-03 22:22:00,
2013-09-03 17:27:00,87.6,73.9,29.90,ESE,112,0.0,-999.0,64,0.00,,,0.00,open2300 v1.10,2013-09-03 22:27:00,
2013-09-03 17:32:00,88.0,73.8,29.90,East,90,0.0,-999.0,63,0.00,,,0.00,open2300 v1.10,2013-09-03 22:32:00,
2013-09-03 17:37:00,88.2,73.1,29.91,East,90,0.0,-999.0,61,0.00,,,0.00,open2300 v1.10,2013-09-03 22:37:00,
2013-09-03 17:42:00,88.5,73.9,29.91,WNW,292,0.0,-999.0,62,0.00,,,0.00,open2300 v1.10,2013-09-03 22:42:00,
2013-09-03 17:47:00,88.9,74.2,29.91,NNW,337,0.0,-999.0,62,0.00,,,0.00,open2300 v1.10,2013-09-03 22:47:00,
2013-09-03 17:52:00,89.2,74.5,29.91,WNW,292,0.0,-999.0,62,0.00,,,0.00,open2300 v1.10,2013-09-03 22:52:00,
2013-09-03 17:57:00,89.4,74.2,29.91,NW,315,0.0,-999.0,61,0.00,,,0.00,open2300 v1.10,2013-09-03 22:57:00,
2013-09-03 18:06:00,90.0,74.3,29.92,NW,315,0.4,-999.0,60,0.00,,,0.00,open2300 v1.10,2013-09-03 23:06:00,
2013-09-03 18:12:00,90.0,74.3,29.92,NW,315,3.4,-999.0,60,0.00,,,0.00,open2300 v1.10,2013-09-03 23:12:00,
2013-09-03 18:17:00,90.1,74.4,29.92,NNW,337,1.8,-999.0,60,0.00,,,0.00,open2300 v1.10,2013-09-03 23:17:00,
2013-09-03 18:22:00,90.1,74.9,29.93,NNW,337,3.4,-999.0,61,0.00,,,0.00,open2300 v1.10,2013-09-03 23:22:00,
2013-09-03 18:27:00,90.1,74.9,29.93,NW,315,0.9,-999.0,61,0.00,,,0.00,open2300 v1.10,2013-09-03 23:27:00,
2013-09-03 18:32:00,90.3,75.1,29.93,NNW,337,0.0,-999.0,61,0.00,,,0.00,open2300 v1.10,2013-09-03 23:32:00,
2013-09-03 18:37:00,90.3,75.1,29.94,WNW,292,0.0,-999.0,61,0.00,,,0.00,open2300 v1.10,2013-09-03 23:37:00,
2013-09-03 18:47:00,89.4,74.7,29.94,WNW,292,0.0,-999.0,62,0.00,,,0.00,open2300 v1.10,2013-09-03 23:47:00,
2013-09-03 18:52:00,89.2,74.5,29.94,WNW,292,0.0,-999.0,62,0.00,,,0.00,open2300 v1.10,2013-09-03 23:52:00,
2013-09-03 18:57:00,88.7,74.5,29.93,WNW,292,0.0,-999.0,63,0.00,,,0.00,open2300 v1.10,2013-09-03 23:57:00,
2013-09-03 19:06:00,88.2,74.0,29.93,WNW,292,0.0,-999.0,63,0.00,,,0.00,open2300 v1.10,2013-09-04 00:06:00,
2013-09-03 19:11:00,87.6,73.9,29.93,SW,225,0.0,-999.0,64,0.00,,,0.00,open2300 v1.10,2013-09-04 00:11:00,
2013-09-03 19:17:00,87.1,73.9,29.93,WNW,292,0.0,-999.0,65,0.00,,,0.00,open2300 v1.10,2013-09-04 00:17:00,
2013-09-03 19:22:00,87.1,73.9,29.93,NW,315,1.1,-999.0,65,0.00,,,0.00,open2300 v1.10,2013-09-04 00:22:00,
2013-09-03 19:27:00,87.1,74.3,29.93,SSW,202,0.0,-999.0,66,0.00,,,0.00,open2300 v1.10,2013-09-04 00:27:00,
2013-09-03 19:32:00,86.9,73.7,29.93,WSW,247,0.0,-999.0,65,0.00,,,0.00,open2300 v1.10,2013-09-04 00:32:00,
2013-09-03 19:37:00,86.7,73.5,29.93,WSW,247,0.0,-999.0,65,0.00,,,0.00,open2300 v1.10,2013-09-04 00:37:00,
2013-09-03 19:47:00,86.5,73.8,29.94,WSW,247,0.0,-999.0,66,0.00,,,0.00,open2300 v1.10,2013-09-04 00:47:00,
2013-09-03 19:52:00,86.2,73.5,29.94,SW,225,0.0,-999.0,66,0.00,,,0.00,open2300 v1.10,2013-09-04 00:52:00,
2013-09-03 19:57:00,85.8,73.6,29.94,SW,225,0.0,-999.0,67,0.00,,,0.00,open2300 v1.10,2013-09-04 00:57:00,
2013-09-03 20:06:00,85.1,72.9,29.94,SW,225,0.0,-999.0,67,0.00,,,0.00,open2300 v1.10,2013-09-04 01:06:00,
2013-09-03 20:12:00,84.9,73.2,29.94,SW,225,0.0,-999.0,68,0.00,,,0.00,open2300 v1.10,2013-09-04 01:12:00,
2013-09-03 20:17:00,85.1,73.4,29.94,NW,315,0.0,-999.0,68,0.00,,,0.00,open2300 v1.10,2013-09-04 01:17:00,
2013-09-03 20:22:00,85.1,73.4,29.95,NW,315,0.0,-999.0,68,0.00,,,0.00,open2300 v1.10,2013-09-04 01:22:00,
2013-09-03 20:32:00,83.5,72.7,29.97,SE,135,0.0,-999.0,70,0.00,,,0.00,open2300 v1.10,2013-09-04 01:32:00,
2013-09-03 20:37:00,82.6,72.6,29.97,ESE,112,8.7,-999.0,72,0.00,,,0.00,open2300 v1.10,2013-09-04 01:37:00,
2013-09-03 20:42:00,82.2,72.2,29.98,SE,135,5.1,-999.0,72,0.00,,,0.00,open2300 v1.10,2013-09-04 01:42:00,
2013-09-03 20:47:00,82.0,72.1,29.98,SE,135,7.2,-999.0,72,0.00,,,0.00,open2300 v1.10,2013-09-04 01:47:00,
2013-09-03 20:52:00,81.9,71.9,29.99,SSE,157,0.0,-999.0,72,0.00,,,0.00,open2300 v1.10,2013-09-04 01:52:00,
2013-09-03 20:57:00,81.9,71.9,29.99,SE,135,9.8,-999.0,72,0.00,,,0.00,open2300 v1.10,2013-09-04 01:57:00,
2013-09-03 21:07:00,81.7,71.8,30.00,South,180,2.0,-999.0,72,0.00,,,0.00,open2300 v1.10,2013-09-04 02:07:00,
2013-09-03 21:17:00,81.3,71.4,30.00,South,180,0.0,-999.0,72,0.00,,,0.00,open2300 v1.10,2013-09-04 02:17:00,
2013-09-03 21:22:00,81.1,71.3,30.00,SSW,202,0.0,-999.0,72,0.00,,,0.00,open2300 v1.10,2013-09-04 02:22:00,
2013-09-03 21:27:00,81.1,71.7,30.00,South,180,0.0,-999.0,73,0.00,,,0.00,open2300 v1.10,2013-09-04 02:27:00,
2013-09-03 21:32:00,81.0,71.5,30.01,SE,135,2.5,-999.0,73,0.00,,,0.00,open2300 v1.10,2013-09-04 02:32:00,
2013-09-03 21:37:00,80.6,71.2,30.01,SSE,157,1.1,-999.0,73,0.00,,,0.00,open2300 v1.10,2013-09-04 02:37:00,
2013-09-03 21:42:00,80.2,71.2,30.01,SE,135,0.0,-999.0,74,0.00,,,0.00,open2300 v1.10,2013-09-04 02:42:00,
2013-09-03 21:47:00,79.9,70.8,30.01,SSE,157,0.0,-999.0,74,0.00,,,0.00,open2300 v1.10,2013-09-04 02:47:00,
2013-09-03 21:57:00,79.7,71.1,30.02,SE,135,2.7,-999.0,75,0.00,,,0.00,open2300 v1.10,2013-09-04 02:57:00,
2013-09-03 22:06:00,79.3,71.1,30.03,SE,135,6.7,-999.0,76,0.00,,,0.00,open2300 v1.10,2013-09-04 03:06:00,
2013-09-03 22:11:00,79.0,70.3,30.02,SE,135,2.9,-999.0,75,0.00,,,0.00,open2300 v1.10,2013-09-04 03:11:00,
2013-09-03 22:17:00,79.0,70.3,30.02,SE,135,5.8,-999.0,75,0.00,,,0.00,open2300 v1.10,2013-09-04 03:17:00,
2013-09-03 22:22:00,78.6,70.8,30.02,SSE,157,8.5,-999.0,77,0.00,,,0.00,open2300 v1.10,2013-09-04 03:22:00,
2013-09-03 22:27:00,77.5,70.5,30.03,South,180,11.4,-999.0,79,0.00,,,0.00,open2300 v1.10,2013-09-04 03:27:00,
2013-09-03 22:32:00,76.8,70.2,30.02,SSE,157,6.5,-999.0,80,0.00,,,0.00,open2300 v1.10,2013-09-04 03:32:00,
2013-09-03 22:37:00,76.3,70.0,30.02,SE,135,4.9,-999.0,81,0.00,,,0.00,open2300 v1.10,2013-09-04 03:37:00,
2013-09-03 22:47:00,75.0,69.2,30.01,SE,135,0.0,-999.0,82,0.00,,,0.00,open2300 v1.10,2013-09-04 03:47:00,
2013-09-03 22:52:00,75.0,69.6,30.00,SE,135,0.0,-999.0,83,0.00,,,0.00,open2300 v1.10,2013-09-04 03:52:00,
2013-09-03 22:57:00,74.8,69.4,29.99,SW,225,5.4,-999.0,83,0.00,,,0.00,open2300 v1.10,2013-09-04 03:57:00,
2013-09-03 23:01:00,74.8,69.7,29.99,South,180,0.0,-999.0,84,0.00,,,0.00,open2300 v1.10,2013-09-04 04:01:00,
2013-09-03 23:06:00,74.8,70.1,29.98,SW,225,0.0,-999.0,85,0.00,,,0.00,open2300 v1.10,2013-09-04 04:06:00,
2013-09-03 23:12:00,74.8,70.1,29.98,SSW,202,0.0,-999.0,85,0.00,,,0.00,open2300 v1.10,2013-09-04 04:12:00,
2013-09-03 23:17:00,74.7,69.9,29.98,SSW,202,0.0,-999.0,85,0.00,,,0.00,open2300 v1.10,2013-09-04 04:17:00,
2013-09-03 23:22:00,74.5,69.7,29.98,SSW,202,0.0,-999.0,85,0.00,,,0.00,open2300 v1.10,2013-09-04 04:22:00,
2013-09-03 23:27:00,74.1,69.3,29.98,SSW,202,0.0,-999.0,85,0.00,,,0.00,open2300 v1.10,2013-09-04 04:27:00,
2013-09-03 23:32:00,74.1,69.3,29.98,SSW,202,0.0,-999.0,85,0.00,,,0.00,open2300 v1.10,2013-09-04 04:32:00,
2013-09-03 23:37:00,74.5,70.1,29.99,SSW,202,2.2,-999.0,86,0.00,,,0.00,open2300 v1.10,2013-09-04 04:37:00,
2013-09-03 23:42:00,74.7,70.2,29.99,SSW,202,0.0,-999.0,86,0.00,,,0.00,open2300 v1.10,2013-09-04 04:42:00,
2013-09-03 23:47:00,74.5,70.1,29.99,SE,135,4.9,-999.0,86,0.00,,,0.00,open2300 v1.10,2013-09-04 04:47:00,
2013-09-03 23:52:00,74.3,69.5,29.99,SE,135,0.0,-999.0,85,0.00,,,0.00,open2300 v1.10,2013-09-04 04:52:00,
2013-09-03 23:57:00,73.9,69.5,29.99,SSE,157,0.0,-999.0,86,0.00,,,0.00,open2300 v1.10,2013-09-04 04:57:00,